Location: *
(32.8140°S, 174.6161°E)
Time: 20:14:28
(UTC+00:00)

COSMOS 2441 - Pass Details

Date: 10 December 2019
Orbit: 708 x 731 km, 98.0° (Epoch: 21 January)

Event Time Altitude Azimuth Distance (km) Brightness Sun altitude
Exits shadow 15:45:47 - 9° (N) 2,861 7.2 -14.8°
Reaches altitude 10° 15:47:26 10° 8° (N) 2,198 6.6 -14.6°
Maximum altitude 15:52:15 76° 282° (WNW) 753 4.3 -13.8°
Drops below altitude 10° 15:57:11 10° 196° (SSW) 2,242 7.2 -13.0°
Sets 15:59:30 0° 194° (SSW) 3,175 8.0 -12.6°
